Syracuse, NY

9:38 AM EDT on October 14, 2019 (GMT -0400)
Syracuse Hancock International

Weather History for KSYR - June, 2019

Change the Weather History Date:

Wednesday, June 5, 2019

  Actual Average Record
Temperature  
Mean Temperature 64 °F 64 °F  
Max Temperature 73 °F 75 °F 94 °F (1934)
Min Temperature 54 °F 53 °F 36 °F (1964)
Degree Days  
Heating Degree Days 1 4  
Month to date heating degree days 27 20  
Since 1 June heating degree days 27 20  
Since 1 July heating degree days 6751 6610  
Cooling Degree Days 0 2  
Month to date cooling degree days 1 10  
Year to date cooling degree days 14 40  
Since 1 June cooling degree days 1 10  
Growing Degree Days 13 (Base 50)    
Moisture  
Dew Point 60 °F    
Average Humidity 79    
Maximum Humidity 100    
Minimum Humidity 57    
Precipitation  
Precipitation 0.83 in 0.11 in 1.40 in (1973)
Month to date precipitation 1.27 0.54  
Year to date precipitation 18.92 14.47  
Snow  
Snow 0.00 in 0.00 in 0.00 in (2002)
Month to date snowfall 0.0 0.0  
Since 1 June snowfall 0.0 0.0  
Since 1 July snowfall 115.0 123.8  
Snow Depth 0.00 in    
Sea Level Pressure  
Sea Level Pressure 29.73 in    
Wind  
Wind Speed 6 mph (NNE)    
Max Wind Speed 14 mph    
Max Gust Speed 18 mph    
Visibility 6 miles    
Events Rain    
T = Trace of Precipitation, MM = Missing Value Source: NWS Daily Summary

Daily Weather History Graph

Daily Weather History Graph

Search for Another Location

Airport or City:

Astronomy

Jun. 05, 2019 Rise Set
Actual Time 5:26 AM EDT 8:40 PM EDT
Civil Twilight 4:51 AM EDT 9:15 PM EDT
Nautical Twilight 4:06 AM EDT 10:00 PM EDT
Astronomical Twilight 3:11 AM EDT 10:55 PM EDT
Moon 7:29 AM EDT (6/5) 11:04 PM EDT (6/5)
Length of Visible Light 16h 23m
Length of Day
15h 14m
Waxing Crescent, 6% of the Moon is Illuminated
Jun 5
Waxing Crescent
Jun 10
First Quarter
Jun 17
Full
Jun 25
Last Quarter
Jul 2
New

Hourly Weather History & Observations

Time (EDT) Temp. Dew Point Humidity Pressure Visibility Wind Dir Wind Speed Gust Speed Precip Events Conditions
12:54 AM 54.0 °F 52.0 °F 93% 29.84 in 10.0 mi Calm Calm - N/A   Overcast
1:54 AM 55.0 °F 52.0 °F 89% 29.82 in 10.0 mi ESE 3.5 mph - N/A   Overcast
2:54 AM 55.9 °F 53.1 °F 90% 29.81 in 10.0 mi Calm Calm - N/A   Overcast
3:54 AM 64.0 °F 52.0 °F 65% 29.81 in 10.0 mi SW 6.9 mph - N/A   Overcast
4:54 AM 66.0 °F 51.1 °F 59% 29.81 in 10.0 mi SSW 11.5 mph - N/A   Overcast
5:54 AM 66.0 °F 52.0 °F 60% 29.81 in 10.0 mi SW 10.4 mph - N/A   Overcast
6:54 AM 64.0 °F 55.9 °F 75% 29.83 in 10.0 mi Calm Calm - N/A   Mostly Cloudy
7:54 AM 68.0 °F 57.0 °F 68% 29.82 in 10.0 mi Calm Calm - N/A   Mostly Cloudy
8:54 AM 72.0 °F 55.9 °F 57% 29.81 in 10.0 mi WSW 10.4 mph - N/A   Mostly Cloudy
9:54 AM 70.0 °F 57.0 °F 63% 29.82 in 10.0 mi West 10.4 mph - 0.00 in   Overcast
10:54 AM 70.0 °F 57.0 °F 63% 29.80 in 10.0 mi WSW 6.9 mph - N/A   Overcast
11:54 AM 69.1 °F 59.0 °F 70% 29.80 in 10.0 mi North 4.6 mph - 0.00 in Rain Light Rain
12:54 PM 68.0 °F 61.0 °F 78% 29.77 in 10.0 mi ENE 3.5 mph - 0.01 in Rain Light Rain
1:54 PM 71.1 °F 61.0 °F 70% 29.74 in 10.0 mi ENE 6.9 mph - 0.00 in   Overcast
2:54 PM 72.0 °F 60.1 °F 66% 29.71 in 10.0 mi East 8.1 mph - N/A   Overcast
3:54 PM 72.0 °F 61.0 °F 68% 29.70 in 10.0 mi ESE 10.4 mph - N/A   Overcast
4:54 PM 68.0 °F 62.1 °F 81% 29.71 in 4.0 mi West 11.5 mph - 0.05 in Rain Rain
5:08 PM 68.0 °F 62.1 °F 81% 29.72 in 2.0 mi West 6.9 mph - 0.01 in Rain Rain
5:22 PM 66.9 °F 63.0 °F 87% 29.71 in 1.5 mi Calm Calm - 0.05 in Rain Rain
5:41 PM 66.0 °F 63.0 °F 90% 29.71 in 3.0 mi Calm Calm - 0.19 in Rain Light Rain
5:54 PM 66.0 °F 64.0 °F 93% 29.69 in 2.5 mi NNE 3.5 mph - 0.19 in Rain Light Rain
6:11 PM 66.0 °F 64.0 °F 93% 29.71 in 1.5 mi ESE 4.6 mph - 0.09 in Rain Heavy Rain
6:17 PM 66.0 °F 63.0 °F 90% 29.71 in 2.5 mi Calm Calm - 0.12 in Rain Light Rain
6:24 PM 66.0 °F 63.0 °F 90% 29.70 in 4.0 mi Calm Calm - 0.12 in Rain Light Rain
6:39 PM 66.9 °F 63.0 °F 87% 29.70 in 6.0 mi ESE 3.5 mph - 0.13 in Rain Light Rain
6:54 PM 66.0 °F 64.0 °F 93% 29.68 in 6.0 mi ENE 3.5 mph - 0.14 in Rain Light Rain
7:23 PM 66.0 °F 64.0 °F 93% 29.69 in 4.0 mi Calm Calm - 0.00 in Rain Light Rain
7:54 PM 66.0 °F 64.0 °F 93% 29.68 in 2.5 mi East 3.5 mph - 0.01 in Rain Light Rain
8:08 PM 66.0 °F 63.0 °F 90% 29.68 in 1.5 mi ENE 3.5 mph - 0.02 in Rain Rain
8:39 PM 64.9 °F 64.0 °F 97% 29.68 in 1.5 mi NNE 4.6 mph - 0.14 in Rain Rain
8:42 PM 64.9 °F 64.0 °F 97% 29.67 in 0.8 mi North 8.1 mph - 0.16 in Rain Heavy Rain
8:46 PM 64.9 °F 64.0 °F 97% 29.67 in 1.5 mi ENE 6.9 mph - 0.25 in Rain Rain
8:54 PM 64.9 °F 64.0 °F 97% 29.66 in 1.8 mi ESE 4.6 mph - 0.34 in Rain Rain
9:01 PM 64.9 °F 64.0 °F 97% 29.67 in 2.5 mi NNE 4.6 mph - 0.08 in Rain Light Rain
9:15 PM 64.9 °F 63.0 °F 93% 29.67 in 4.0 mi Calm Calm - 0.08 in Rain Light Rain
9:42 PM 64.9 °F 63.0 °F 93% 29.68 in 5.0 mi Calm Calm - 0.08 in   Overcast
9:54 PM 64.9 °F 63.0 °F 93% 29.67 in 5.0 mi Calm Calm - 0.08 in   Overcast
10:27 PM 64.9 °F 63.0 °F 93% 29.68 in 4.0 mi SW 3.5 mph - 0.01 in Rain Light Rain
10:54 PM 64.9 °F 64.0 °F 97% 29.67 in 4.0 mi WSW 3.5 mph - 0.01 in Rain Light Rain
11:07 PM 66.0 °F 63.0 °F 90% 29.69 in 6.0 mi West 6.9 mph - 0.00 in Rain Light Rain
11:48 PM 64.4 °F 62.6 °F 94% 29.69 in 9.0 mi West 8.1 mph - 0.00 in Rain Light Rain
11:54 PM 64.9 °F 63.0 °F 93% 29.68 in 9.0 mi West 8.1 mph - 0.00 in Rain Light Rain